This is the latest recevied weather packets stored in our database for station/object K2RMB. If no packets are shown the sender has not sent any weather packets the latest 10 day(s).
| Time | Temp. | Humidity | Pressure | Rain* | Wind** | Luminosity | Snow |
|---|---|---|---|---|---|---|---|
| 1777087921 | 5° C | 56% | 1015.6 hPa | 0 mm | - | 0 W/m² | - |
| 1777087621 | 5° C | 54% | 1015.6 hPa | 0 mm | - | 0 W/m² | - |
| 1777087320 | 5° C | 55% | 1015.3 hPa | 0 mm | - | 0 W/m² | - |
| 1777087016 | 5° C | 57% | 1015.3 hPa | 0 mm | - | 0 W/m² | - |
| 1777086716 | 5.56° C | 53% | 1015.3 hPa | 0 mm | - | 0 W/m² | - |
| 1777086411 | 5.56° C | 56% | 1015.6 hPa | 0 mm | - | 0 W/m² | - |
| 1777086107 | 5.56° C | 58% | 1015.3 hPa | 0 mm | - | 0 W/m² | - |
| 1777085804 | 6.11° C | 52% | 1015.3 hPa | 0 mm | - | 0 W/m² | - |
| 1777085500 | 6.11° C | 51% | 1015.3 hPa | 0 mm | - | 0 W/m² | - |
| 1777085196 | 6.67° C | 47% | 1015.3 hPa | 0 mm | - | 0 W/m² | - |
| 1777084891 | 7.22° C | 44% | 1015.3 hPa | 0 mm | - | 0 W/m² | - |
| 1777084588 | 7.22° C | 44% | 1015.3 hPa | 0 mm | - | 0 W/m² | - |
| 1777084283 | 6.67° C | 44% | 1015.3 hPa | 0 mm | - | 0 W/m² | - |
| 1777083979 | 6.67° C | 54% | 1015.3 hPa | 0 mm | - | 0 W/m² | - |
| 1777083676 | 7.22° C | 47% | 1015.3 hPa | 0 mm | - | 0 W/m² | - |
| 1777083372 | 6.67° C | 46% | 1014.9 hPa | 0 mm | - | 0 W/m² | - |
| 1777083069 | 6.67° C | 43% | 1014.9 hPa | 0 mm | - | 0 W/m² | - |
| 1777082769 | 6.11° C | 44% | 1014.9 hPa | 0 mm | - | 0 W/m² | - |
| 1777082465 | 5.56° C | 46% | 1014.6 hPa | 0 mm | - | 0 W/m² | - |
| 1777082160 | 5.56° C | 50% | 1014.6 hPa | 0 mm | - | 0 W/m² | - |
| 1777081855 | 5.56° C | 55% | 1014.6 hPa | 0 mm | - | 0 W/m² | - |
| 1777081550 | 5.56° C | 51% | 1014.3 hPa | 0 mm | - | 0 W/m² | - |
| 1777081247 | 5.56° C | 51% | 1014.3 hPa | 0 mm | - | 0 W/m² | - |
| 1777080945 | 5.56° C | 54% | 1014.3 hPa | 0 mm | - | 0 W/m² | - |
| 1777080640 | 5.56° C | 51% | 1014.3 hPa | 0 mm | - | 0 W/m² | - |
* Rain latest hour (hover to see other rain measurements)
** Current wind speed in m/s (hover to see current wind gust speed)